Stations météo

Publicité
Ajaccio, France (7761): Température de l'air & dewpoint: 17.01.2017 01:00:00 - 23.01.2017 01:00:00 (CET)Ajaccio, France (7761): Température de l'air 5cm: 17.01.2017 01:00:00 - 23.01.2017 01:00:00 (CET)Ajaccio, France (7761): Température de l'air -20cm & Température de l'air -100cm: 17.01.2017 01:00:00 - 23.01.2017 01:00:00 (CET)Ajaccio, France (7761): Vitesse du vent & gusts: 17.01.2017 01:00:00 - 23.01.2017 01:00:00 (CET)Ajaccio, France (7761): Direction du vent: 17.01.2017 01:00:00 - 23.01.2017 01:00:00 (CET)Ajaccio, France (7761): reduced air pressure: 17.01.2017 01:00:00 - 23.01.2017 01:00:00 (CET)Ajaccio, France (7761): visibility: 17.01.2017 01:00:00 - 23.01.2017 01:00:00 (CET)Ajaccio, France (7761): Ensoleillement: 17.01.2017 01:00:00 - 23.01.2017 01:00:00 (CET)Ajaccio, France (7761): Quantités de précipitations: 17.01.2017 01:00:00 - 23.01.2017 01:00:00 (CET)
Date & Time tt [°C] td [°C] tt 5cm [°C] tt -20cm [°C] tt -100cm [°C] ff [km/h] ff [knt] fx [km/h] fx [knt] dd ppp [hPa] vv [km] sd [min] rr [mm]
23.01.2017 01:00:00 8,7 7,8 7,1 8,9 10,8 0 0 9 5 N 1015,9 11 0 0,0
23.01.2017 00:00:00 9,5 8,4 7,8 8,9 10,9 2 1 9 5 E 1016,1 20 0 0,0
22.01.2017 23:00:00 9,9 8,0 8,4 8,8 10,9 2 1 12 6 E 1016,2 27 0 0,6
22.01.2017 22:00:00 9,8 8,4 8,9 8,8 10,9 5 3 12 7 NE 1016,3 12 0 1,4
22.01.2017 21:00:00 9,7 8,8 8,9 8,7 10,9 8 5 15 8 ENE 1016,0 4,0 0 0,4
22.01.2017 20:00:00 10,1 9,2 8,9 8,7 10,9 4 2 8 5 NE 1016,1 10 0 0,2
22.01.2017 19:00:00 10,4 9,3 9,0 8,6 10,9 3 1 15 8 NNW 1015,6 11 0 0,6
22.01.2017 18:00:00 11,1 10,0 9,3 8,5 10,9 8 4 19 10 E 1016,1 20 0 0,0
22.01.2017 17:00:00 11,7 9,9 10,5 8,3 10,9 6 4 12 7 NE 1016,0 20 0 0,4
22.01.2017 16:00:00 12,1 9,8 10,8 8,2 10,9 8 4 15 8 NNE 1015,9 25 0 1,0
22.01.2017 15:00:00 13,1 9,5 11,5 8,1 10,9 4 2 18 10 ENE 1015,9 25 0 0,2
22.01.2017 14:00:00 14,2 7,5 14,3 7,9 10,9 13 7 23 12 N 1015,6 25 16 0,0
22.01.2017 13:00:00 16,2 9,1 16,2 7,8 10,9 18 10 24 13 N 1015,9 25 49 0,0
22.01.2017 12:00:00 13,9 8,3 10,6 7,8 10,9 11 6 17 9 NNE 1016,5 25 36 0,0
22.01.2017 11:00:00 11,8 6,9 9,6 7,8 10,9 9 5 16 9 NE 1016,9 55 0 0,2
22.01.2017 10:00:00 11,1 6,8 8,9 7,8 10,9 5 3 16 9 E 1016,6 20 0 0,0
22.01.2017 09:00:00 10,0 6,7 8,1 7,8 10,9 4 2 18 10 - 1016,3 10 0 0,0
22.01.2017 08:00:00 9,9 6,1 7,3 7,7 10,9 14 7 23 13 N 1016,0 60 0 0,4
22.01.2017 07:00:00 8,8 6,2 7,2 7,7 10,9 6 3 33 18 NNE 1016,8 9 0 1,4
22.01.2017 06:00:00 8,8 6,6 7,1 7,7 10,9 22 12 34 18 NNE 1015,7 15 0 1,8
22.01.2017 05:00:00 8,3 6,3 7,1 7,7 11,0 10 6 24 13 NE 1016,9 12 0 1,4
22.01.2017 04:00:00 8,2 7,6 7,2 7,7 11,0 14 7 22 12 NNE 1017,2 7 0 3,6
22.01.2017 03:00:00 8,4 7,3 7,1 7,7 11,0 4 2 17 9 ESE 1017,6 6 0 3,3
22.01.2017 02:00:00 9,2 5,9 7,3 7,7 11,0 13 7 20 11 N 1017,5 6 0 3,0
22.01.2017 01:00:00 10,4 7,1 7,3 7,6 11,0 13 7 35 19 SW 1018,2 4,6 0 1,4
22.01.2017 00:00:00 10,8 4,9 7,7 7,6 11,0 17 9 39 21 N 1017,3 59 0 0,8
21.01.2017 23:00:00 11,9 4,1 9,1 7,5 11,0 16 9 35 19 NE 1017,2 18 0 0,2
21.01.2017 22:00:00 12,7 1,7 11,6 7,5 11,0 20 11 35 19 NNE 1016,9 53 0 0,0
21.01.2017 21:00:00 13,2 2,1 10,8 7,5 11,0 13 7 32 18 NNE 1017,1 50 0 0,0
21.01.2017 20:00:00 12,2 1,2 10,8 7,4 11,0 15 8 37 20 NNE 1017,1 60 0 0,0
21.01.2017 19:00:00 13,6 0,9 11,8 7,3 11,0 18 10 44 24 NE 1017,3 60 0 0,0
21.01.2017 18:00:00 13,7 0,0 10,5 7,2 11,0 10 5 48 26 NNE 1017,1 40 0 0,0
21.01.2017 17:00:00 14,1 -1,5 12,5 7,1 11,0 19 11 54 29 NE 1016,6 40 0 0,0
21.01.2017 16:00:00 13,7 0,0 11,4 7,0 11,0 9 5 18 10 N 1016,9 40 0 0,0
21.01.2017 15:00:00 13,8 0,4 13,2 6,9 11,0 4 2 21 12 NNE 1016,9 40 0 0,0
21.01.2017 14:00:00 13,6 5,7 13,8 6,8 11,0 5 3 14 8 NNW 1017,3 20 0 0,0
21.01.2017 13:00:00 13,3 6,4 13,8 6,7 11,0 10 5 25 13 SW 1018,4 40 22 0,0
21.01.2017 12:00:00 14,9 5,7 17,8 6,7 11,0 13 7 19 10 SW 1019,3 40 60 0,0
21.01.2017 11:00:00 12,9 5,3 17,1 6,7 11,0 10 5 16 8 SSW 1019,8 30 60 0,0
21.01.2017 10:00:00 10,4 4,5 8,6 6,8 11,0 2 1 9 5 E 1019,6 30 60 0,0
21.01.2017 09:00:00 5,3 2,3 1,3 6,9 11,1 6 3 9 5 NNE 1019,9 30 35 0,0
21.01.2017 08:00:00 3,3 1,5 0,6 6,9 11,1 5 3 11 6 NE 1020,2 29 0 0,0
21.01.2017 07:00:00 3,4 1,4 0,9 6,9 11,1 5 3 11 6 NE 1020,5 30 0 0,0
21.01.2017 06:00:00 3,3 0,5 1,7 7,0 11,1 5 3 11 6 ENE 1020,6 30 0 0,0
21.01.2017 05:00:00 3,7 1,1 2,4 7,0 11,1 7 4 11 6 NNE 1020,8 31 0 0,0
21.01.2017 04:00:00 3,4 0,8 0,9 7,1 11,1 6 3 9 5 E 1021,2 42 0 0,0
21.01.2017 03:00:00 3,0 -0,1 0,1 7,1 11,1 0 0 20 11 N 1022,0 60 0 0,0
21.01.2017 02:00:00 2,9 -0,2 0,6 7,2 11,1 7 4 11 6 ENE 1022,3 60 0 0,0
21.01.2017 01:00:00 2,9 0,1 0,3 7,2 11,1 7 4 12 7 ESE 1022,9 60 0 0,0
21.01.2017 00:00:00 5,2 0,9 0,7 7,2 11,1 4 2 13 7 ENE 1023,3 60 0 0,0
20.01.2017 23:00:00 2,5 -0,3 0,9 7,2 11,1 8 4 11 6 NE 1023,7 10 0 0,0
20.01.2017 22:00:00 2,7 -0,1 0,8 7,2 11,1 8 4 11 6 E 1023,8 20 0 0,0
20.01.2017 21:00:00 3,8 0,0 1,9 7,2 11,1 4 2 13 7 ENE 1023,7 20 0 0,0
20.01.2017 20:00:00 3,8 1,0 2,3 7,2 11,2 7 4 13 7 ENE 1023,5 19 0 0,0
20.01.2017 19:00:00 4,9 1,9 3,3 7,1 11,2 10 5 12 6 ENE 1023,6 20 0 0,0
20.01.2017 18:00:00 7,3 3,0 4,3 7,0 11,2 8 5 12 7 E 1023,7 30 0 0,0
20.01.2017 17:00:00 10,3 1,6 6,1 6,9 11,2 3 2 6 3 E 1023,6 40 25 0,0
20.01.2017 16:00:00 13,2 1,8 12,8 6,8 11,1 3 2 6 3 WSW 1023,7 40 60 0,0
20.01.2017 15:00:00 13,2 1,2 12,7 6,8 11,2 0 0 6 4 N 1024,0 40 25 0,0
20.01.2017 14:00:00 12,1 1,7 13,3 6,7 11,2 3 2 8 5 SSW 1024,4 40 18 0,0
20.01.2017 13:00:00 12,1 0,2 11,7 6,7 11,2 6 3 9 5 S 1024,8 40 35 0,0
20.01.2017 12:00:00 8,9 2,0 9,6 6,7 11,2 2 1 9 5 ENE 1025,5 25 0 0,0
20.01.2017 11:00:00 7,7 1,3 6,0 6,8 11,2 2 1 10 5 NNE 1025,8 25 1 0,0
20.01.2017 10:00:00 5,5 0,8 4,1 6,8 11,2 9 5 10 6 ENE 1025,7 25 17 0,0
20.01.2017 09:00:00 3,8 -0,4 0,7 6,9 11,2 8 4 16 9 NE 1025,2 25 7 0,0
20.01.2017 08:00:00 2,1 -1,5 1,2 7,0 11,3 8 4 18 10 NE 1024,9 32 0 0,0
20.01.2017 07:00:00 3,0 -1,4 -0,3 7,0 11,2 10 5 12 7 NE 1024,5 25 0 0,0
20.01.2017 06:00:00 2,8 -1,0 0,1 7,1 11,3 10 5 13 7 NE 1024,4 37 0 0,0
20.01.2017 05:00:00 2,9 -1,5 0,9 7,1 11,3 4 2 21 11 NE 1024,5 40 0 0,0
20.01.2017 04:00:00 2,9 -0,9 -0,4 7,2 11,3 12 6 22 12 NE 1025,0 35 0 0,0
20.01.2017 03:00:00 2,3 -1,1 0,3 7,2 11,3 12 7 19 11 NE 1025,6 35 0 0,0
20.01.2017 02:00:00 2,2 -1,2 -0,1 7,3 11,3 13 7 21 11 NE 1025,2 31 0 0,0
20.01.2017 01:00:00 1,8 -0,9 0,3 7,4 11,3 14 7 22 12 NNE 1025,3 28 0 0,0
20.01.2017 00:00:00 2,6 -0,9 0,5 7,4 11,3 13 7 17 9 NE 1025,5 25 0 0,0
19.01.2017 23:00:00 3,7 -0,9 2,3 7,4 11,3 9 5 15 8 NNE 1025,5 20 0 0,0
19.01.2017 22:00:00 4,1 -0,5 2,4 7,3 11,3 10 5 15 8 NE 1025,0 25 0 0,0
19.01.2017 21:00:00 4,7 -0,5 3,0 7,3 11,3 9 5 19 11 NNE 1024,9 22 0 0,0
19.01.2017 20:00:00 6,0 -0,7 4,6 7,2 11,3 11 6 16 9 NNE 1024,5 33 0 0,0
19.01.2017 19:00:00 6,8 -0,4 5,3 7,2 11,3 11 6 16 9 NNE 1024,1 26 0 0,0
19.01.2017 18:00:00 8,2 0,4 6,0 7,0 11,3 9 5 15 8 NNE 1023,2 35 0 0,0
19.01.2017 17:00:00 10,9 1,4 8,8 6,9 11,3 9 5 17 9 SSW 1022,7 25 58 0,0
19.01.2017 16:00:00 12,2 1,8 11,9 6,8 11,4 11 6 18 10 SW 1022,2 25 60 0,0
19.01.2017 15:00:00 12,9 1,5 15,2 6,7 11,3 11 6 17 9 SSW 1021,9 25 60 0,0
19.01.2017 14:00:00 12,7 1,4 17,3 6,6 11,3 9 5 14 7 SW 1021,9 25 60 0,0
19.01.2017 13:00:00 12,0 -0,2 17,5 6,6 11,4 8 5 12 6 SW 1022,2 51 60 0,0
19.01.2017 12:00:00 11,0 0,4 16,0 6,6 11,4 6 4 10 6 SW 1022,7 25 60 0,0
19.01.2017 11:00:00 10,8 -0,1 13,8 6,6 11,4 4 2 9 5 ESE 1022,9 25 60 0,0
19.01.2017 10:00:00 7,6 0,3 8,1 6,7 11,4 4 2 10 5 ENE 1022,6 25 60 0,0
19.01.2017 09:00:00 3,2 -0,4 0,2 6,8 11,4 4 2 12 6 NE 1022,3 25 42 0,0
19.01.2017 08:00:00 1,0 -1,6 -0,4 6,8 11,4 9 5 14 8 NNE 1021,6 27 0 0,0
19.01.2017 07:00:00 1,0 -1,9 -1,3 6,9 11,4 10 6 16 9 NE 1021,2 25 0 0,0
19.01.2017 06:00:00 0,5 -2,2 -1,3 7,0 11,4 9 5 16 9 ENE 1020,7 25 0 0,0
19.01.2017 05:00:00 1,2 -2,2 -0,4 7,0 11,4 10 5 16 9 NE 1020,6 20 0 0,0
19.01.2017 04:00:00 2,2 -1,6 -1,4 7,1 11,4 10 5 17 9 NE 1020,1 20 0 0,0
19.01.2017 03:00:00 1,2 -2,0 -1,8 7,1 11,5 8 4 13 7 ENE 1019,8 60 0 0,0
19.01.2017 02:00:00 2,6 -1,8 -0,3 7,2 11,5 6 4 14 8 E 1019,2 60 0 0,0
19.01.2017 01:00:00 2,9 -1,7 -0,6 7,2 11,5 4 2 14 7 - 1018,4 10 0 0,0
19.01.2017 00:00:00 3,2 -2,1 0,0 7,2 11,5 6 4 11 6 ENE 1018,0 60 0 0,0
18.01.2017 23:00:00 3,0 -2,1 0,9 7,3 11,5 4 2 13 7 E 1018,1 60 0 0,0
18.01.2017 22:00:00 4,5 -1,7 1,9 7,3 11,5 8 4 14 8 NNE 1017,7 20 0 0,0
18.01.2017 21:00:00 7,6 -1,9 2,6 7,2 11,5 9 5 18 10 NE 1017,2 20 0 0,0
18.01.2017 20:00:00 7,1 -2,4 3,7 7,3 11,5 5 3 32 17 SW 1016,5 20 0 0,0
18.01.2017 19:00:00 8,4 -2,6 3,2 7,2 11,5 5 3 19 11 N 1015,8 20 0 0,0
18.01.2017 18:00:00 7,2 -1,8 4,7 7,2 11,5 10 5 23 13 NNE 1015,3 25 0 0,0
18.01.2017 17:00:00 8,4 -2,0 7,4 7,1 11,5 4 2 23 12 NNE 1015,0 25 0 0,0
18.01.2017 16:00:00 8,7 -1,4 7,7 7,1 11,5 5 3 24 13 NE 1014,7 25 0 0,0
18.01.2017 15:00:00 9,3 -1,2 8,7 7,1 11,6 7 4 38 21 NE 1014,3 20 0 0,0
18.01.2017 14:00:00 9,9 -1,5 9,7 7,0 11,6 10 5 16 9 NNE 1013,8 25 0 0,0
18.01.2017 13:00:00 9,6 -0,9 9,3 7,0 11,6 3 1 26 14 NE 1013,5 21 0 0,0
18.01.2017 12:00:00 9,4 -1,7 8,6 7,0 11,6 22 12 44 24 N 1013,6 25 0 0,0
18.01.2017 11:00:00 8,9 -1,8 7,7 7,1 11,6 29 16 43 23 N 1013,8 25 0 0,0
18.01.2017 10:00:00 8,0 -2,1 7,2 7,1 11,6 13 7 40 22 N 1013,5 25 0 0,0
18.01.2017 09:00:00 8,2 -3,0 6,0 7,1 11,6 27 15 46 25 NNE 1012,2 25 0 0,0
18.01.2017 08:00:00 7,2 -3,1 4,6 7,1 11,6 18 10 44 24 NNE 1011,8 10 0 0,0
18.01.2017 07:00:00 7,8 -3,1 5,5 7,1 11,6 16 9 48 26 E 1011,0 20 0 0,0
18.01.2017 06:00:00 7,8 -2,5 5,6 7,1 11,6 29 16 54 29 NNE 1009,9 60 0 0,0
18.01.2017 05:00:00 6,4 -0,4 4,0 7,1 11,7 24 13 60 33 NNE 1010,6 60 0 0,0
18.01.2017 04:00:00 6,3 0,0 5,7 7,2 11,7 34 18 63 34 NNE 1011,2 60 0 0,0
18.01.2017 03:00:00 8,3 -1,8 7,2 7,2 11,7 35 19 72 39 NNE 1010,3 60 0 0,0
18.01.2017 02:00:00 8,6 -2,4 6,0 7,2 11,7 26 14 52 28 NNE 1010,0 60 0 0,0
18.01.2017 01:00:00 7,7 -2,6 4,4 7,2 11,7 21 11 43 23 N 1009,7 60 0 0,0
18.01.2017 00:00:00 5,8 -2,1 2,6 7,3 11,7 12 7 21 11 ENE 1009,9 60 0 0,0
17.01.2017 23:00:00 4,6 -2,5 2,8 7,3 11,7 6 4 15 8 E 1010,1 44 0 0,0
17.01.2017 22:00:00 5,6 -2,5 4,1 7,3 11,7 4 2 27 14 SE 1009,9 59 0 0,0
17.01.2017 21:00:00 7,4 -2,9 3,5 7,3 11,7 17 9 31 17 N 1009,1 60 0 0,0
17.01.2017 20:00:00 5,6 -3,5 3,7 7,2 11,7 8 4 16 9 E 1008,8 60 0 0,0
17.01.2017 19:00:00 7,3 -4,2 5,8 7,2 11,7 8 5 40 21 NE 1008,2 60 0 0,0
17.01.2017 18:00:00 8,0 -4,5 6,3 7,1 11,7 27 14 57 31 NNE 1007,4 40 0 0,0
17.01.2017 17:00:00 8,2 -4,3 7,4 7,1 11,8 28 15 51 28 N 1006,9 60 24 0,0
17.01.2017 16:00:00 9,1 -4,1 8,4 7,0 11,8 27 14 44 24 NNE 1006,5 40 60 0,0
17.01.2017 15:00:00 10,0 -4,8 10,8 7,0 11,8 29 16 67 36 NNE 1006,3 10 60 0,0
17.01.2017 14:00:00 10,1 -4,3 10,2 6,9 11,8 24 13 50 27 N 1006,4 40 56 0,0
17.01.2017 13:00:00 8,9 -4,0 8,1 6,9 11,8 23 12 39 21 N 1006,5 40 14 0,0
17.01.2017 12:00:00 8,1 -3,7 8,0 7,0 11,8 18 10 31 17 NNW 1007,0 40 25 0,0
17.01.2017 11:00:00 7,9 -3,9 6,7 7,0 11,8 20 11 36 19 NNW 1007,2 40 8 0,0
17.01.2017 10:00:00 6,9 -3,9 4,3 7,1 11,8 24 13 41 22 N 1006,9 40 0 0,0
17.01.2017 09:00:00 2,9 -2,0 -0,4 7,2 11,8 0 0 12 6 N 1006,7 40 0 0,0
17.01.2017 08:00:00 1,5 -3,0 -0,9 7,2 11,8 4 2 9 5 ENE 1006,2 60 0 0,0
17.01.2017 07:00:00 0,7 -3,0 -1,5 7,3 11,8 7 4 13 7 E 1006,0 40 0 0,0
17.01.2017 06:00:00 0,2 -2,8 -1,7 7,4 11,8 4 2 8 4 - 1005,4 10 0 0,0
17.01.2017 05:00:00 0,2 -3,2 -1,3 7,5 11,9 0 0 8 4 N 1005,6 10 0 0,0
17.01.2017 04:00:00 -0,1 -2,6 -1,0 7,5 11,9 4 2 8 5 - 1006,0 10 0 0,0
17.01.2017 03:00:00 0,0 -3,2 -1,2 7,6 11,9 4 2 8 4 NNE 1006,4 20 0 0,0
17.01.2017 02:00:00 -0,3 -3,3 -1,7 7,7 11,9 6 3 12 6 ENE 1006,4 20 0 0,0
17.01.2017 01:00:00 -0,4 -3,6 -2,1 7,7 11,9 9 5 13 7 NE 1006,6 20 0 0,0

tt = Température de l'air
td = dewpoint
tt 5cm = Température de l'air 5cm
tt -20cm = Température de l'air -20cm
tt -100cm = Température de l'air -100cm
ff = Vitesse du vent
fx = gusts
dd = Direction du vent
ppp = reduced air pressure
vv = visibility
sd = Ensoleillement
rr = Quantités de précipitations

stations d'obs. à proximité